Tracking 30743 objects as of 20-Jun-2025
HD Live streaming from Space Station
objects crossing your sky now

STARLINK-3511

Track STARLINK-3511 now!
10-day predictions
STARLINK-3511 is classified as:


NORAD ID: 51752
Int'l Code: 2022-016AQ
Perigee: 545.9 km
Apogee: 547.8 km
Inclination: 53.2 °
Period: 95.4 minutes
Semi major axis: 6917 km
RCS: Unknown
Launch date: February 21, 2022
Source: United States (US)
Launch site: AIR FORCE EASTERN TEST RANGE (AFETR)
Your satellite tracking list
Your tracking list is empty




NASA's NSSDC Master Catalog

Two Line Element Set (TLE):
1 51752U 22016AQ  25170.38651221 -.00001085  00000-0 -50075-4 0  9991
2 51752  53.2189  51.0660 0001358  84.2431 275.8716 15.08842703185072
Source of the keplerian elements: AFSPC